Home > Weather > Jena > Past weeks

Flag for Germany Past Weather in Jena, Thuringia, Germany — Yesterday and Last 2 Weeks

Now
70 °F

Broken clouds.


Feels Like: 70 °F
Forecast: 58 / 73 °F
Wind: 9 mph from Northeast

Location: Erfurt-Bindersleben

Current Time: May 28, 2016 at 8:10:25 PM

Latest Report: May 28, 2016 at 7:20 PM


Visibility: N/A

Pressure: 29.89 "Hg

Humidity: 64%

Dew Point: 57 °F

Location of JenaLocation

Past Weather in Jena — Graph

°F

Jena Temperature Yesterday

Maximum temperature yesterday: 61 °F (at 5:50 PM)
Minimum temperature yesterday: 50 °F (at 4:50 AM)
Average temperature yesterday: 56 °F

High & Low Weather Summary for the Past Weeks

 TemperatureHumidityPressure
High82 °F (May 22, 2:20 PM)100% (May 27, 10:50 AM)30.09 "Hg (May 27, 10:50 AM)
Low36 °F (May 15, 3:20 AM)25% (May 22, 2:50 PM)29.56 "Hg (May 13, 7:20 PM)
Average55 °F71%29.94 "Hg
* Reported May 13 7:20 PM — May 28 7:20 PM, Jena, Weather by CustomWeather, © 2016

Note: Actual official high and low records may vary slightly from our data, if they occured in-between our weather recording intervals... More about our weather records

Advertising

Jena Weather History for the Previous 24 Hours

Scroll right to see more
 ConditionsComfort  
Time TempWeatherWind HumidityBarometerVisibility
7:20 PM
Sat, May 28
70 °FBroken clouds.9 mph64%29.89 "HgN/A
6:50 PM70 °FPartly sunny.9 mph64%29.89 "HgN/A
6:20 PM72 °FPartly sunny.9 mph61%29.89 "HgN/A
5:50 PM72 °FPartly sunny.8 mph61%29.89 "HgN/A
5:20 PM72 °FPartly sunny.9 mph61%29.89 "HgN/A
4:50 PM73 °FScattered clouds.9 mph61%29.89 "HgN/A
4:20 PM72 °FScattered clouds.8 mph65%29.92 "HgN/A
3:50 PM72 °FPassing clouds.7 mph61%29.92 "HgN/A
3:20 PM73 °FPassing clouds.8 mph61%29.92 "HgN/A
2:50 PM72 °FScattered clouds.8 mph61%29.92 "HgN/A
2:20 PM72 °FScattered clouds.9 mph65%29.95 "HgN/A
1:50 PM70 °FScattered clouds.6 mph69%29.95 "HgN/A
1:20 PM68 °FScattered clouds.6 mph69%29.95 "HgN/A
12:50 PM68 °FPassing clouds.6 mph69%29.95 "HgN/A
12:20 PM68 °FPassing clouds.3 mph69%29.98 "HgN/A
11:50 AM64 °FPassing clouds.6 mph78%29.98 "HgN/A
11:20 AM63 °FScattered clouds.9 mph77%29.98 "Hg4 mi
10:50 AM63 °FPartly sunny.10 mph77%29.98 "Hg4 mi
10:20 AM63 °FFog.6 mph83%29.98 "Hg2 mi
9:50 AM59 °FFog.5 mph88%29.98 "Hg2 mi
9:20 AM55 °FFog.3 mph100%29.98 "Hg1 mi
8:50 AM55 °FFog.3 mph94%29.98 "Hg1 mi
8:20 AM55 °FFog.5 mph94%29.98 "Hg0 mi
7:50 AM55 °FFog.2 mph100%29.98 "Hg0 mi
7:20 AM54 °FFog.5 mph100%29.98 "Hg0 mi
6:50 AM54 °FFog.1 mph100%29.98 "Hg1 mi
6:20 AM54 °FFog.1 mph100%29.98 "Hg1 mi
5:50 AM54 °FFog.2 mph100%29.98 "Hg3 mi
5:20 AM54 °FFog.2 mph100%29.98 "Hg1 mi
4:50 AM54 °FFog.No wind100%29.98 "Hg0 mi
4:20 AM54 °FFog.1 mph100%29.98 "Hg0 mi
3:50 AM54 °FFog.2 mph100%29.98 "Hg0 mi
3:20 AM54 °FFog.No wind100%29.98 "Hg0 mi
2:50 AM55 °FFog.1 mph94%30.01 "Hg1 mi
2:20 AM55 °FFog.2 mph94%30.01 "Hg2 mi
1:50 AM55 °FFog.1 mph94%30.01 "Hg3 mi
1:20 AM55 °FFog.2 mph100%30.01 "Hg3 mi
12:50 AM55 °FFog.1 mph100%30.01 "Hg3 mi
12:20 AM57 °FPassing clouds.No wind88%30.01 "Hg4 mi
11:50 PM
Fri, May 27
57 °FFog.2 mph94%30.01 "Hg3 mi
11:20 PM57 °FPassing clouds.No wind94%30.01 "Hg4 mi
10:50 PM57 °FPassing clouds.2 mph94%30.04 "Hg4 mi
10:20 PM59 °FPassing clouds.3 mph82%30.04 "Hg4 mi
9:50 PM59 °FPartly sunny.2 mph88%30.04 "Hg4 mi
9:20 PM59 °FPartly sunny.2 mph82%30.04 "Hg5 mi
8:50 PM59 °FPartly sunny.3 mph82%30.04 "HgN/A
8:20 PM59 °FPartly sunny.6 mph82%30.01 "HgN/A
Weather by CustomWeather, © 2016

See weather overviewHow to use our weather pages